User: anonymous   Login
Location: Fiddletown
(38.4917°N, 120.6633°W)
Time: 12:10:15
(UTC-08:00)
Language:

Envisat - Orbit

View from above orbital plane
View from above orbital plane
View from above satellite
View from above satellite

Ground track
Ground track

The orbit data is extracted from the following two-line orbital elements,

1 27386U 02009A   14330.36708587  .00000199  00000-0  80338-4 0  6703
2 27386 098.3647 031.5776 0000952 083.7125 276.4171 14.37757586666881
Epoch (UTC): 26 November 2014 08:48:36
Eccentricity: 0.0000952
inclination: 98.3647°
perigee height: 765 km
apogee height: 766 km
right ascension of ascending node: 31.5776°
argument of perigee: 83.7125°
revolutions per day: 14.37757586
mean anomaly at epoch: 276.4171°
orbit number at epoch: 66688

The dashed part of the orbit path shows where the satellite is in the earth's shadow,  

DLR